Temperature
20 20 20 20 18 18 19 20 20 21 21 22 22 21 20 19 19 18 18 18 18 18 18 18 18 18 18 18 18 18 18 18 18 18 18 18 18 18 18 18 18 18 18 18 18 18 18 18 18
20 20 20 19 18 19 20 20 20 21 22 22 22 21 20 19 18 18 18 18 18 18 18 18 18 18 18 18 18 18 18 18 18 18 18 18 18 18 18 18 18 18 17 17 18 17 17 18 18
20 20 19 18 19 19 20 20 21 22 22 22 21 21 20 19 19 18 18 18 18 18 18 18 18 18 18 18 18 18 18 18 18 18 17 17 17 17 17 17 17 17 17 17 17 17 17 17 17
20 20 19 18 20 20 20 21 21 22 22 22 21 20 20 19 19 19 18 18 18 18 18 18 18 18 18 18 18 18 17 17 17 17 17 17 17 17 17 17 17 17 17 17 17 17 17 17 17
20 20 18 19 20 20 20 22 22 22 22 21 20 19 19 19 19 19 19 19 19 18 18 18 18 18 18 18 18 17 17 17 17 17 17 17 16 16 16 16 16 16 16 16 16 17 17 17 17
20 18 18 19 20 21 21 22 22 21 21 21 20 19 19 19 19 19 19 19 19 18 18 18 18 18 18 17 17 17 17 17 17 16 16 16 16 16 16 16 16 16 16 16 16 16 16 16 17
19 17 18 19 20 20 21 22 22 21 21 21 20 19 19 19 19 19 19 19 18 18 18 18 18 18 17 17 17 17 17 17 16 16 16 16 16 16 16 16 16 16 16 16 16 16 16 16 16
20 17 19 19 20 20 22 23 22 22 21 21 21 19 18 19 19 19 19 19 18 18 18 18 18 18 17 17 17 17 17 16 16 16 16 16 16 16 16 16 16 16 16 16 16 16 16 16 16
20 17 18 19 20 20 22 22 22 22 22 21 21 20 20 19 19 19 19 18 18 18 18 18 18 18 18 17 17 17 17 16 16 16 16 16 16 16 16 15 15 15 15 15 15 16 16 16 16
19 17 19 20 20 20 21 22 22 21 20 20 20 20 20 19 19 19 19 19 19 18 18 18 18 18 18 17 17 17 17 16 16 16 16 16 16 16 16 15 15 15 15 15 15 15 16 16 16
19 18 19 20 21 21 21 22 22 21 19 20 20 20 20 20 19 19 19 19 19 19 19 18 18 18 18 17 17 17 17 16 16 16 16 16 16 16 15 15 15 15 15 15 15 15 15 16 16
19 20 20 21 22 22 22 22 21 21 21 21 21 21 20 20 20 20 19 19 19 19 19 18 18 18 18 18 17 17 17 17 16 16 16 16 16 15 15 15 15 15 15 15 15 15 15 15 16
20 20 21 22 22 22 22 21 21 21 21 21 21 20 20 20 20 20 20 20 19 19 19 19 19 18 18 18 17 17 17 17 16 16 16 16 16 15 15 15 15 15 15 15 15 15 15 15 15
21 21 21 21 22 22 21 21 21 21 21 21 21 21 20 20 20 20 20 20 20 19 19 19 19 18 18 18 18 17 17 17 16 16 16 16 15 15 15 15 15 15 15 15 15 15 15 15 15
21 20 21 21 21 21 21 20 20 21 21 21 21 21 21 21 21 20 20 20 20 20 19 19 19 18 18 18 18 17 17 17 16 16 16 16 15 15 15 15 15 15 15 15 15 15 15 15 15
20 19 19 21 21 21 20 19 20 20 21 21 21 21 21 21 21 21 21 20 20 20 20 19 19 18 18 18 17 17 17 17 16 16 16 15 15 15 15 15 15 14 14 15 15 15 15 15 15
19 19 19 20 21 21 19 19 19 20 20 20 20 20 21 21 21 21 21 20 20 20 20 19 19 18 18 18 18 17 17 17 16 16 16 15 15 15 15 15 14 14 14 14 14 14 15 15 15
19 19 20 20 20 20 19 18 19 20 20 19 20 20 20 20 21 21 21 20 20 20 20 19 19 19 18 18 18 17 17 17 16 16 16 15 15 15 15 15 14 14 14 14 14 14 14 15 15
20 20 20 19 20 19 18 18 18 19 19 19 19 20 20 20 20 20 20 20 20 20 20 19 19 19 18 18 18 17 17 16 16 16 16 15 15 15 15 15 15 14 14 14 14 14 14 15 15
20 20 19 19 20 19 18 18 18 19 18 19 19 19 19 20 20 20 20 20 20 20 19 19 19 19 18 18 18 17 17 16 16 16 16 15 15 15 15 15 15 14 14 14 14 14 14 14 15
20 19 19 19 19 19 19 18 18 18 19 19 19 19 19 19 20 20 20 20 20 19 19 19 19 19 18 18 17 17 17 16 16 16 16 15 15 15 15 15 15 15 14 14 14 14 14 14 14
19 20 20 20 18 17 18 17 18 17 18 18 18 19 19 19 19 19 19 19 19 19 19 19 19 18 18 18 17 17 17 16 16 16 16 15 15 15 15 15 15 15 14 14 14 14 14 14 14
20 21 20 19 18 17 18 17 17 17 17 17 17 18 19 19 19 19 19 19 19 19 19 18 18 18 18 17 17 17 17 16 16 16 16 15 15 15 15 15 15 15 14 14 14 14 14 14 14
20 19 19 17 17 17 18 17 17 17 17 17 17 18 19 19 19 19 19 19 19 18 18 18 18 18 17 17 17 17 16 16 16 16 15 15 15 15 15 15 15 15 14 14 14 14 14 14 14
19 17 17 17 17 17 18 18 17 18 18 18 17 18 18 18 18 18 18 18 18 18 18 18 18 18 17 17 17 16 16 16 16 15 15 15 15 15 15 15 15 15 14 14 14 14 14 14 14
19 18 17 17 17 17 18 17 17 18 19 19 18 18 18 18 18 18 18 18 18 18 18 17 17 17 17 17 17 16 16 16 16 15 15 15 15 15 15 15 15 15 14 14 14 14 14 14 14
19 18 17 17 18 17 17 18 18 18 17 17 18 18 18 18 18 18 18 18 17 17 17 17 17 17 16 16 16 16 16 15 15 15 15 15 15 15 15 15 15 14 14 14 14 14 14 14 14
19 18 16 17 17 17 18 17 16 17 17 17 17 17 17 18 18 17 17 17 17 17 17 17 16 16 16 16 16 16 15 15 15 15 15 15 14 14 14 14 14 14 14 14 14 14 14 14 14
19 19 17 16 17 16 17 17 18 17 17 17 17 17 17 17 17 17 17 17 17 17 17 16 16 16 16 16 15 15 15 15 15 15 15 14 14 14 14 14 14 14 14 14 14 14 14 14 14
20 20 18 17 17 16 16 17 19 18 17 17 17 17 18 18 17 17 17 17 17 16 16 16 16 16 15 15 15 15 15 15 15 14 14 14 14 14 14 14 14 14 14 14 13 13 13 13 13
Wind_Speed
3 2 1 2 4 4 2 1 1 1 3 4 7 9 9 6 5 7 3 10 12 9 10 11 12 12 12 12 12 12 12 11 11 11 10 10 9 9 8 8 8 8 7 7 7 7 7 7 6
1 0 2 3 4 3 0 2 2 3 6 7 8 9 8 7 7 8 6 11 12 10 10 11 12 13 12 12 12 11 11 10 10 9 9 9 9 8 8 7 7 7 7 6 6 6 6 5 5
1 0 2 3 2 3 3 2 3 4 6 5 5 6 5 5 6 5 9 12 11 10 11 12 13 13 12 12 11 10 10 10 9 8 8 8 8 8 8 7 7 6 6 6 6 5 5 4 5
2 3 3 4 1 2 4 3 4 6 5 6 7 6 4 3 5 9 13 13 12 9 11 13 14 13 12 11 11 10 9 8 8 7 7 7 7 7 6 6 6 5 5 5 5 5 4 4 4
3 3 4 3 0 1 1 2 4 5 4 6 9 7 4 4 11 15 13 13 12 8 10 13 13 13 12 11 10 9 8 7 6 6 5 5 5 5 4 4 4 4 4 4 4 4 5 4 5
3 4 4 2 1 0 0 3 7 9 9 9 9 7 3 4 10 12 13 11 11 10 9 12 13 13 12 11 10 9 7 6 5 4 3 2 2 2 2 2 3 3 4 4 4 5 5 5 5
3 3 2 2 2 2 1 3 6 6 6 5 7 6 4 4 8 11 11 10 9 9 8 8 10 11 11 10 9 8 6 5 3 1 1 1 2 2 2 3 3 3 3 4 5 6 6 6 7
4 3 2 1 3 1 1 3 5 6 5 6 6 8 6 7 9 9 10 9 8 8 7 7 8 8 8 8 8 7 6 4 2 1 2 2 3 4 4 5 6 5 5 5 6 7 7 8 8
3 4 1 1 3 2 1 5 3 4 6 4 4 6 8 11 10 10 8 6 6 7 6 5 6 7 7 6 6 6 4 3 2 3 3 4 4 5 4 4 5 5 5 6 7 8 8 9 9
4 3 3 3 3 3 3 5 4 4 7 6 7 8 10 10 10 10 9 7 6 6 6 6 6 6 7 6 4 3 2 2 2 2 3 3 3 3 3 3 4 5 6 7 8 8 8 8 7
4 4 3 3 3 3 4 3 3 7 5 7 12 13 11 9 9 8 7 7 7 7 6 6 6 6 6 3 4 2 2 0 1 2 3 3 4 4 5 4 5 6 6 6 7 8 7 6 5
3 2 4 2 1 3 3 3 4 5 7 8 11 13 11 10 9 8 8 7 6 6 6 6 6 5 4 4 3 3 2 1 2 3 4 4 3 3 3 3 4 4 5 4 5 4 5 5 5
2 2 2 2 3 4 6 5 5 4 7 10 11 10 10 9 8 7 8 7 7 6 6 5 5 5 4 3 2 3 2 2 3 4 5 4 2 2 2 2 4 5 5 4 3 3 4 4 4
3 3 2 3 3 3 7 4 5 4 8 10 10 9 8 9 8 7 7 7 7 7 6 5 5 4 4 4 3 2 3 3 4 4 5 6 4 3 2 3 3 4 5 4 3 4 4 3 3
3 3 2 1 3 3 7 6 3 3 7 9 7 6 7 6 7 9 9 9 8 7 7 6 6 5 5 4 3 3 4 4 3 4 5 6 6 4 3 3 3 3 6 6 5 4 4 4 4
3 3 2 1 3 3 7 4 1 3 7 6 5 5 5 4 6 8 9 8 8 7 6 5 6 6 5 4 3 3 4 4 3 4 5 6 5 5 4 3 3 4 5 4 3 4 4 4 4
2 3 3 1 1 4 6 4 0 3 7 6 4 4 4 3 4 5 7 8 8 8 7 6 6 5 5 4 3 4 3 3 3 3 3 4 5 5 3 2 2 4 3 4 4 3 3 3 5
3 3 2 2 2 7 7 4 2 3 6 5 3 3 3 4 4 4 6 7 7 6 7 6 5 5 5 4 3 3 3 2 2 2 2 3 3 4 3 2 3 4 3 4 4 4 3 2 3
3 4 4 2 3 6 7 5 2 3 5 4 3 3 3 2 2 4 5 5 5 5 5 5 5 4 4 3 2 2 1 0 1 1 1 2 2 3 3 2 3 3 3 3 4 3 4 4 3
2 4 4 4 5 6 7 5 2 3 3 4 4 3 3 3 4 5 5 5 5 4 4 3 4 3 3 2 2 2 2 0 0 1 1 1 1 2 2 2 2 2 2 4 4 3 3 3 3
3 6 6 6 5 5 7 5 3 2 3 3 3 3 3 3 4 4 5 4 5 4 3 4 3 4 3 3 2 3 3 3 3 2 2 2 1 1 2 1 1 1 1 2 3 2 2 2 3
3 6 8 8 6 1 3 2 3 0 3 2 2 3 3 3 4 4 5 5 4 3 4 4 4 4 3 4 4 3 2 1 2 2 2 2 2 2 2 1 0 1 1 1 2 1 1 1 2
4 6 7 7 6 4 2 5 3 0 2 0 1 3 3 3 4 4 4 4 4 4 5 5 6 5 4 5 4 4 2 1 1 1 2 2 3 3 2 1 1 1 1 1 2 2 1 1 1
7 9 8 6 5 2 2 4 3 4 5 4 3 3 3 3 4 4 4 5 5 5 6 6 6 5 4 5 5 4 3 2 2 3 3 2 3 3 3 2 1 1 1 1 1 1 1 0 0
7 7 4 3 2 2 1 2 5 5 6 7 7 5 4 4 5 5 5 5 4 5 5 5 6 5 4 5 4 3 3 3 2 2 2 2 2 3 4 2 2 2 2 2 1 1 1 1 0
4 7 7 5 4 2 1 2 4 2 5 6 6 6 5 5 4 5 4 4 4 4 5 5 5 4 3 4 3 3 3 3 2 2 2 1 1 2 3 3 3 3 3 2 1 1 2 1 1
5 3 6 6 3 2 1 0 3 3 5 6 6 7 6 5 5 5 4 4 4 4 4 4 4 4 2 2 3 3 3 3 2 2 2 2 2 3 4 3 3 3 3 2 2 2 2 2 1
5 7 5 5 4 2 2 3 6 8 7 6 7 7 6 5 5 4 4 3 3 3 3 4 4 3 2 2 2 3 2 2 2 3 3 3 4 4 5 5 4 4 3 3 2 2 2 2 3
4 3 4 4 5 5 4 6 7 13 12 11 9 8 8 7 6 4 3 2 3 3 3 3 3 3 3 2 3 3 2 2 3 3 3 3 4 5 5 5 4 4 4 3 2 2 2 2 3
6 7 7 5 4 4 5 6 3 12 11 10 9 7 7 6 6 5 4 3 3 2 2 2 2 2 1 1 2 2 2 2 2 2 3 3 4 4 4 4 4 5 4 3 2 3 3 2 3
Wind_Direction
272 309 77 52 50 57 76 101 146 108 54 53 69 81 82 62 88 122 145 134 127 127 126 123 120 114 109 104 100 96 91 88 84 80 76 73 68 63 61 57 56 54 52 49 45 43 46 45 41
293 334 60 55 79 85 99 192 137 125 128 110 77 76 78 74 85 109 123 133 130 129 126 124 120 114 110 106 101 98 94 90 85 81 76 71 66 61 57 53 51 48 45 42 38 36 37 35 31
294 187 79 63 87 147 167 186 143 108 122 106 82 55 67 102 110 125 143 138 129 124 124 125 121 117 112 108 103 99 95 91 86 81 76 71 65 60 55 50 47 44 40 37 34 29 26 21 17
65 52 53 71 89 216 174 173 129 103 80 71 96 67 50 60 112 132 139 135 127 125 126 128 125 121 117 112 107 103 99 94 89 83 78 71 63 57 52 47 43 38 32 27 25 15 10 6 1
69 80 65 61 7 269 204 166 130 101 83 83 92 88 56 30 111 131 137 133 132 131 132 133 131 128 124 120 115 110 105 99 93 86 78 70 60 55 50 42 38 33 25 17 11 1 354 349 342
51 63 82 106 189 82 41 123 107 93 106 102 98 101 88 108 120 136 137 137 137 140 140 140 139 136 134 131 128 126 121 112 103 95 81 65 51 39 19 8 9 9 8 2 356 347 337 333 326
101 84 115 149 127 84 139 139 111 114 117 117 118 103 123 139 141 143 141 138 141 144 145 148 150 148 146 144 143 141 138 137 133 124 27 349 339 316 299 293 300 321 333 333 332 329 327 320 314
129 97 56 66 124 150 227 110 108 114 111 115 110 125 153 177 151 129 132 136 141 147 153 158 160 160 158 159 157 155 156 166 181 231 288 312 327 322 294 276 276 292 311 315 316 316 316 313 309
97 80 104 222 158 207 133 95 82 81 94 75 81 126 152 152 130 116 116 124 146 157 170 170 170 174 175 178 181 176 180 206 254 297 307 325 336 331 311 281 281 295 310 314 317 314 311 312 310
93 126 204 223 188 177 108 108 113 87 82 81 83 102 130 134 130 133 141 150 160 168 178 180 182 187 193 194 182 192 208 246 291 313 323 344 347 337 350 333 328 322 321 326 330 327 324 321 315
128 165 208 234 199 137 104 94 95 120 117 147 143 144 146 140 141 150 158 158 166 166 163 168 175 175 174 170 165 164 177 241 347 353 3 32 36 21 24 11 359 353 347 344 342 344 337 325 313
140 195 190 208 165 125 115 109 95 126 159 157 148 149 149 150 159 166 166 162 151 142 150 156 160 157 156 149 145 143 134 95 41 25 35 49 46 33 28 19 9 4 354 348 345 341 339 334 325
168 188 182 121 72 94 103 102 108 118 134 137 140 145 152 159 167 169 163 157 145 138 139 148 145 141 140 130 128 117 117 102 76 56 51 62 60 39 26 11 14 5 3 359 350 348 346 342 339
181 150 139 115 95 83 98 81 91 130 137 139 144 153 162 167 165 154 152 151 151 146 144 141 136 137 127 122 118 116 110 100 80 63 58 65 68 57 43 20 10 4 2 360 358 354 350 337 339
144 110 85 129 123 116 97 53 71 136 134 137 146 153 159 167 159 161 164 160 160 152 145 140 138 121 117 121 117 109 108 103 82 65 60 64 67 64 57 31 9 353 0 8 11 6 5 2 359
92 74 91 258 140 117 100 93 20 120 123 126 137 143 145 154 159 163 162 158 157 148 144 145 133 119 114 114 109 101 105 104 90 77 65 57 58 59 55 33 2 357 10 11 6 9 2 359 357
56 130 155 129 104 105 99 119 43 108 111 110 113 121 125 122 126 150 160 158 160 153 146 141 134 131 126 117 108 102 101 96 91 80 69 56 49 50 56 33 354 6 15 6 3 12 5 355 349
186 154 141 155 136 101 98 104 70 83 105 112 104 95 99 126 156 151 149 153 156 151 145 143 138 137 125 104 93 78 63 50 64 73 63 64 48 48 49 33 8 15 19 7 5 2 1 351 342
164 138 126 139 143 105 109 100 80 90 93 93 93 91 88 110 127 106 119 125 119 122 133 142 143 149 128 103 110 107 103 348 1 331 54 58 48 46 46 25 13 19 25 2 360 5 4 357 360
139 114 109 80 92 106 103 77 36 83 118 133 135 122 112 90 77 86 92 99 104 112 121 130 145 147 138 134 145 148 142 171 259 318 350 347 22 32 43 39 13 11 22 7 4 17 12 358 20
167 165 161 143 93 84 93 37 16 33 71 91 113 124 109 114 115 106 103 97 98 103 120 131 131 132 129 116 91 72 54 30 13 356 335 316 318 357 28 41 32 16 47 360 345 9 43 5 355
176 177 152 134 112 107 116 121 301 132 67 69 108 117 125 110 109 109 107 100 100 96 96 94 101 105 105 97 94 109 112 117 269 275 300 311 321 336 5 23 47 10 19 349 328 18 51 78 357
156 128 121 115 104 78 63 118 277 149 120 152 126 121 123 127 128 124 120 118 103 94 90 90 90 81 83 90 96 103 102 160 305 345 4 341 330 335 340 345 5 329 326 323 336 351 15 108 140
112 85 68 56 72 73 234 134 232 218 192 176 161 132 126 120 112 113 102 94 83 82 86 87 85 73 73 79 79 97 100 80 48 17 12 348 333 328 328 329 329 308 301 301 300 317 325 290 185
88 96 74 37 27 242 222 126 229 220 186 170 163 152 138 122 114 109 97 90 86 84 84 83 82 69 64 73 69 81 95 91 73 34 21 8 343 322 314 324 301 292 287 295 307 336 315 290 265
140 129 147 166 186 218 37 192 253 204 154 144 144 144 132 122 116 117 119 115 109 101 94 88 85 75 66 69 63 72 86 79 60 44 35 15 325 302 314 321 309 308 314 317 318 309 293 295 269
127 138 159 135 126 111 222 68 355 76 115 124 132 134 137 135 128 124 119 119 120 113 106 106 98 78 68 73 68 68 76 76 59 38 29 8 335 331 336 340 332 328 325 323 340 319 304 306 281
138 144 109 117 138 154 197 209 204 186 169 154 153 153 151 145 137 129 125 123 119 120 109 99 98 97 68 64 73 74 75 71 55 43 21 359 347 349 347 343 342 337 331 324 344 331 318 328 302
143 131 127 129 151 150 187 247 211 187 178 169 169 164 159 157 152 144 139 138 124 107 104 104 95 82 70 71 78 72 63 71 64 46 15 355 351 352 348 341 342 343 338 330 331 318 331 334 322
162 169 153 152 195 167 164 253 242 176 171 163 161 162 161 158 155 148 139 129 121 120 116 115 107 102 110 98 86 83 60 64 53 13 349 346 349 349 345 349 353 347 340 334 334 321 320 312 309
Height
1511 1510 1510 1510 1512 1519 1521 1516 1511 1509 1508 1507 1506 1507 1510 1514 1518 1526 1524 1524 1525 1526 1527 1527 1527 1527 1527 1527 1528 1528 1528 1527 1527 1527 1527 1527 1527 1527 1526 1526 1526 1526 1525 1525 1525 1525 1524 1524 1524
1510 1510 1511 1510 1517 1528 1524 1513 1511 1508 1508 1507 1508 1510 1512 1516 1518 1521 1523 1525 1526 1527 1527 1528 1528 1528 1528 1528 1528 1528 1528 1528 1528 1527 1527 1527 1527 1526 1526 1526 1525 1525 1525 1524 1524 1524 1524 1523 1523
1510 1510 1511 1512 1519 1525 1520 1512 1509 1508 1508 1507 1510 1513 1515 1519 1520 1522 1524 1526 1527 1528 1528 1529 1529 1529 1529 1529 1529 1529 1528 1528 1528 1528 1527 1527 1527 1526 1526 1525 1525 1524 1524 1524 1523 1523 1523 1523 1523
1510 1511 1512 1516 1519 1515 1512 1509 1508 1508 1509 1510 1511 1516 1519 1521 1521 1523 1525 1527 1528 1529 1529 1530 1530 1530 1530 1530 1529 1529 1529 1529 1528 1528 1528 1527 1527 1526 1526 1525 1525 1524 1524 1523 1523 1522 1522 1522 1522
1510 1511 1515 1521 1518 1512 1509 1507 1507 1508 1510 1512 1512 1518 1521 1523 1523 1525 1527 1529 1529 1530 1530 1531 1531 1531 1531 1530 1530 1530 1529 1529 1529 1528 1528 1528 1527 1527 1526 1525 1525 1524 1523 1523 1522 1522 1521 1521 1521
1511 1511 1521 1525 1518 1512 1509 1508 1509 1510 1512 1514 1515 1519 1524 1525 1525 1527 1529 1530 1530 1531 1531 1532 1532 1532 1531 1531 1531 1531 1530 1530 1530 1529 1529 1528 1528 1527 1526 1526 1525 1524 1523 1523 1522 1521 1521 1521 1521
1512 1515 1521 1520 1518 1515 1511 1509 1510 1511 1513 1515 1516 1520 1525 1527 1527 1529 1530 1531 1532 1532 1533 1533 1533 1533 1533 1533 1532 1532 1532 1531 1531 1530 1529 1529 1528 1527 1526 1526 1525 1524 1523 1523 1522 1521 1521 1520 1520
1511 1515 1519 1520 1518 1516 1510 1510 1511 1512 1514 1516 1517 1520 1524 1527 1529 1530 1531 1532 1533 1533 1534 1534 1534 1534 1534 1534 1534 1533 1533 1532 1532 1531 1530 1529 1528 1527 1527 1526 1525 1524 1523 1523 1522 1521 1521 1520 1520
1512 1519 1523 1519 1517 1515 1510 1511 1513 1514 1514 1516 1518 1520 1523 1527 1529 1531 1532 1533 1534 1534 1535 1535 1535 1536 1535 1535 1535 1535 1534 1533 1532 1531 1530 1530 1529 1528 1527 1526 1525 1524 1523 1522 1522 1521 1520 1520 1519
1512 1521 1519 1513 1512 1512 1511 1512 1514 1516 1516 1518 1520 1522 1525 1527 1529 1531 1532 1533 1534 1535 1536 1536 1536 1537 1536 1536 1536 1535 1535 1534 1533 1532 1531 1530 1529 1528 1527 1526 1525 1524 1523 1522 1521 1520 1520 1519 1519
1512 1516 1513 1511 1510 1511 1512 1513 1514 1516 1519 1519 1520 1523 1526 1528 1530 1532 1533 1534 1535 1535 1536 1537 1537 1537 1537 1537 1537 1536 1535 1535 1534 1532 1531 1530 1529 1528 1527 1526 1525 1524 1523 1522 1521 1520 1519 1518 1518
1511 1511 1510 1510 1510 1511 1513 1514 1515 1516 1518 1520 1521 1523 1526 1529 1531 1532 1533 1535 1536 1536 1537 1538 1538 1538 1538 1538 1537 1537 1536 1535 1534 1533 1532 1531 1530 1528 1527 1526 1525 1524 1523 1522 1521 1520 1519 1518 1517
1511 1511 1510 1510 1510 1511 1513 1515 1516 1518 1520 1521 1523 1525 1527 1529 1531 1533 1534 1535 1536 1537 1538 1538 1539 1539 1539 1539 1538 1537 1537 1536 1535 1534 1532 1531 1530 1529 1527 1526 1525 1524 1523 1521 1520 1519 1518 1517 1516
1510 1510 1510 1511 1512 1513 1514 1517 1518 1521 1521 1523 1524 1526 1528 1530 1531 1533 1535 1536 1537 1538 1538 1539 1539 1539 1539 1539 1539 1538 1537 1537 1536 1534 1533 1532 1530 1529 1528 1526 1525 1524 1522 1521 1520 1518 1517 1517 1516
1510 1512 1512 1512 1512 1515 1516 1522 1522 1522 1523 1524 1526 1527 1529 1531 1532 1533 1534 1536 1537 1538 1539 1539 1540 1540 1540 1539 1539 1538 1538 1537 1536 1535 1533 1532 1531 1529 1528 1526 1525 1523 1522 1521 1519 1518 1517 1516 1516
1512 1517 1521 1515 1513 1515 1521 1532 1525 1524 1524 1525 1526 1528 1529 1531 1533 1534 1535 1536 1537 1538 1539 1540 1540 1540 1540 1540 1539 1539 1538 1537 1536 1535 1534 1532 1531 1529 1528 1526 1525 1524 1522 1521 1519 1518 1517 1516 1515
1519 1525 1524 1519 1514 1516 1522 1530 1526 1525 1524 1526 1527 1528 1530 1531 1533 1534 1535 1537 1538 1538 1539 1539 1540 1540 1540 1540 1539 1538 1538 1538 1537 1535 1534 1533 1531 1530 1528 1527 1525 1524 1522 1521 1519 1518 1517 1516 1515
1525 1524 1524 1523 1519 1519 1525 1529 1526 1526 1526 1527 1528 1529 1530 1531 1533 1534 1535 1537 1538 1539 1539 1539 1540 1540 1540 1540 1539 1539 1538 1538 1537 1536 1534 1533 1532 1530 1529 1527 1526 1524 1523 1521 1520 1518 1517 1516 1515
1516 1520 1524 1523 1519 1522 1528 1530 1529 1528 1528 1529 1529 1530 1531 1531 1533 1534 1536 1537 1538 1539 1539 1539 1540 1540 1539 1539 1539 1539 1538 1538 1537 1536 1535 1533 1532 1531 1529 1528 1526 1525 1523 1521 1520 1519 1517 1516 1516
1515 1521 1526 1525 1521 1525 1531 1533 1531 1530 1530 1530 1531 1531 1531 1532 1533 1535 1536 1537 1538 1538 1539 1539 1540 1540 1539 1539 1539 1538 1538 1537 1537 1536 1535 1534 1533 1531 1530 1528 1527 1525 1524 1522 1521 1519 1518 1517 1516
1517 1521 1524 1526 1525 1527 1532 1539 1536 1533 1532 1532 1532 1532 1532 1532 1533 1535 1536 1537 1538 1538 1538 1539 1539 1539 1539 1539 1538 1538 1538 1538 1537 1536 1535 1534 1533 1532 1530 1529 1527 1526 1524 1523 1521 1520 1519 1518 1518
1520 1514 1517 1522 1532 1540 1537 1552 1542 1537 1535 1533 1532 1532 1532 1533 1534 1535 1536 1537 1537 1538 1538 1538 1539 1539 1538 1538 1538 1537 1537 1537 1536 1536 1535 1534 1533 1532 1531 1529 1528 1526 1525 1523 1522 1521 1520 1519 1518
1515 1513 1517 1523 1533 1541 1541 1550 1548 1538 1538 1535 1533 1532 1532 1533 1534 1535 1536 1537 1537 1538 1538 1538 1538 1538 1538 1538 1537 1537 1537 1536 1536 1536 1535 1534 1533 1532 1531 1529 1528 1526 1525 1524 1523 1521 1520 1519 1518
1512 1518 1524 1531 1539 1551 1544 1549 1549 1541 1536 1534 1533 1533 1533 1534 1535 1536 1536 1537 1537 1538 1538 1538 1538 1537 1537 1537 1537 1537 1536 1536 1535 1535 1534 1534 1533 1532 1531 1529 1528 1527 1526 1524 1523 1522 1520 1519 1518
1516 1531 1547 1552 1556 1555 1541 1545 1545 1532 1529 1530 1531 1532 1533 1534 1534 1535 1536 1536 1537 1537 1537 1537 1537 1537 1537 1537 1536 1536 1536 1536 1535 1534 1534 1533 1532 1531 1530 1529 1528 1527 1525 1524 1523 1522 1520 1519 1518
1519 1527 1547 1557 1558 1553 1543 1547 1539 1528 1528 1529 1530 1532 1533 1534 1534 1535 1536 1536 1537 1537 1537 1537 1537 1536 1536 1536 1536 1536 1536 1535 1535 1534 1533 1532 1532 1531 1530 1529 1527 1526 1525 1524 1522 1521 1520 1519 1518
1520 1526 1527 1540 1545 1554 1550 1543 1536 1530 1530 1530 1531 1531 1532 1533 1534 1535 1536 1536 1537 1537 1537 1537 1536 1536 1536 1536 1536 1535 1535 1535 1534 1534 1533 1532 1531 1530 1529 1528 1526 1525 1524 1523 1521 1520 1519 1518 1517
1512 1519 1531 1540 1552 1557 1551 1548 1545 1535 1532 1531 1531 1531 1531 1533 1534 1535 1536 1536 1537 1537 1537 1537 1536 1536 1536 1536 1535 1535 1535 1534 1534 1533 1532 1531 1530 1529 1528 1526 1525 1524 1523 1522 1520 1519 1518 1517 1516
1516 1520 1526 1536 1540 1553 1558 1549 1524 1525 1526 1527 1528 1529 1530 1532 1533 1534 1535 1536 1536 1537 1536 1536 1536 1536 1535 1535 1535 1534 1534 1534 1533 1532 1531 1530 1529 1528 1526 1525 1524 1522 1521 1520 1519 1517 1516 1515 1514
1506 1512 1520 1535 1539 1540 1546 1542 1516 1518 1521 1524 1526 1528 1530 1531 1532 1534 1535 1536 1536 1536 1536 1536 1535 1535 1535 1534 1534 1533 1533 1533 1532 1531 1530 1529 1528 1527 1525 1524 1522 1521 1519 1518 1516 1515 1514 1513 1512